When you browse on this site, cookies collect data to enhance your experience and personalize the content and advertising you see.
Visit our Privacy Policy to learn more. By continuing to use the site, you agree to this use of cookies and data.
  • In Romania
  • List of Countries
  • For 7 days
  • Water Temperature
  • Satellite Maps
  • Weather Map
  • Weather Widgets
  • user-avatar
    Login

    Hourly Weather San Luis

    Today, 24 March, Sunday

    Time Temperature Precipitation Wind Pressure Humidity
    00:00 +20°C° 0 mm 4 mps 700 mmHg 45%
    01:00 +19°C° 0 mm 4 mps 701 mmHg 44%
    02:00 +19°C° 0 mm 4 mps 701 mmHg 43%
    03:00 +18°C° 0 mm 4 mps 701 mmHg 42%
    04:00 +18°C° 0 mm 4 mps 701 mmHg 41%
    05:00 +17°C° 0 mm 4 mps 701 mmHg 41%
    06:00 +16°C° 0 mm 5 mps 702 mmHg 39%
    07:00 +17°C° 0 mm 6 mps 703 mmHg 38%
    08:00 +17°C° 0 mm 7 mps 703 mmHg 37%
    09:00 +20°C° 0 mm 7 mps 704 mmHg 34%
    10:00 +22°C° 0 mm 7 mps 704 mmHg 31%
    11:00 +24°C° 0 mm 6 mps 704 mmHg 27%
    12:00 +26°C° 0 mm 6 mps 704 mmHg 26%
    13:00 +27°C° 0 mm 6 mps 703 mmHg 25%
    14:00 +28°C° 0 mm 6 mps 703 mmHg 24%
    15:00 +27°C° 0 mm 6 mps 702 mmHg 25%
    16:00 +26°C° 0 mm 7 mps 702 mmHg 26%
    17:00 +26°C° 0 mm 7 mps 701 mmHg 27%
    18:00 +23°C° 0 mm 7 mps 701 mmHg 30%
    19:00 +21°C° 0 mm 7 mps 701 mmHg 34%
    20:00 +19°C° 0 mm 6 mps 701 mmHg 37%
    21:00 +19°C° 0 mm 6 mps 701 mmHg 37%
    22:00 +19°C° 0 mm 6 mps 701 mmHg 38%
    23:00 +17°C° 0 mm 6 mps 701 mmHg 39%

    Tomorrow, 25 March, Monday

    Time Temperature Precipitation Wind Pressure Humidity
    00:00 +17°C° 0 mm 6 mps 701 mmHg 39%
    01:00 +17°C° 0 mm 6 mps 701 mmHg 40%
    02:00 +17°C° 0 mm 5 mps 701 mmHg 41%
    03:00 +16°C° 0 mm 5 mps 701 mmHg 44%
    04:00 +16°C° 0 mm 5 mps 700 mmHg 46%
    05:00 +16°C° 0 mm 5 mps 700 mmHg 49%
    06:00 +17°C° 0 mm 4 mps 701 mmHg 49%
    07:00 +18°C° 0 mm 4 mps 701 mmHg 49%
    08:00 +19°C° 0 mm 4 mps 702 mmHg 50%
    09:00 +19°C° 0.2 mm 4 mps 702 mmHg 53%
    10:00 +20°C° 0.2 mm 3 mps 702 mmHg 57%
    11:00 +20°C° 0.2 mm 3 mps 702 mmHg 61%
    12:00 +20°C° 0.2 mm 3 mps 702 mmHg 62%
    13:00 +20°C° 0.2 mm 3 mps 701 mmHg 62%
    14:00 +20°C° 0.2 mm 3 mps 701 mmHg 63%
    15:00 +21°C° 0 mm 3 mps 700 mmHg 61%
    16:00 +21°C° 0 mm 4 mps 700 mmHg 59%
    17:00 +22°C° 0 mm 5 mps 700 mmHg 57%
    18:00 +20°C° 0 mm 5 mps 700 mmHg 64%
    19:00 +19°C° 0 mm 5 mps 701 mmHg 70%
    20:00 +16°C° 0 mm 5 mps 701 mmHg 76%
    21:00 +16°C° 0 mm 5 mps 701 mmHg 75%
    22:00 +16°C° 0 mm 5 mps 702 mmHg 74%
    23:00 +16°C° 0 mm 5 mps 703 mmHg 73%

    Day after tomorrow, 26 March, Tuesday

    Time Temperature Precipitation Wind Pressure Humidity
    00:00 +17°C° 0 mm 4 mps 702 mmHg 74%
    01:00 +15°C° 0 mm 4 mps 702 mmHg 75%
    02:00 +15°C° 0 mm 4 mps 702 mmHg 75%
    03:00 +14°C° 0 mm 4 mps 702 mmHg 76%
    04:00 +14°C° 0 mm 4 mps 702 mmHg 77%
    05:00 +14°C° 0 mm 4 mps 702 mmHg 77%
    06:00 +15°C° 0 mm 4 mps 703 mmHg 73%
    07:00 +17°C° 0 mm 4 mps 703 mmHg 69%
    08:00 +17°C° 0 mm 4 mps 704 mmHg 65%
    09:00 +19°C° 0.1 mm 3 mps 704 mmHg 61%
    10:00 +20°C° 0.1 mm 3 mps 705 mmHg 56%
    11:00 +22°C° 0.1 mm 3 mps 705 mmHg 52%
    12:00 +22°C° 0.4 mm 3 mps 705 mmHg 54%
    13:00 +21°C° 0.4 mm 4 mps 704 mmHg 56%
    14:00 +21°C° 0.4 mm 4 mps 704 mmHg 58%
    15:00 +21°C° 0.3 mm 4 mps 703 mmHg 58%
    16:00 +21°C° 0.3 mm 5 mps 703 mmHg 57%
    17:00 +20°C° 0.3 mm 5 mps 703 mmHg 56%
    18:00 +19°C° 0 mm 5 mps 703 mmHg 58%
    19:00 +17°C° 0 mm 5 mps 703 mmHg 60%
    20:00 +16°C° 0 mm 5 mps 703 mmHg 61%
    21:00 +16°C° 0 mm 5 mps 704 mmHg 66%
    22:00 +15°C° 0 mm 5 mps 704 mmHg 70%
    23:00 +15°C° 0 mm 4 mps 704 mmHg 74%

    27 March, Wednesday

    Time Temperature Precipitation Wind Pressure Humidity
    00:00 +15°C° 0 mm 4 mps 704 mmHg 75%
    01:00 +14°C° 0 mm 4 mps 704 mmHg 77%
    02:00 +14°C° 0 mm 4 mps 703 mmHg 78%
    03:00 +14°C° 0 mm 4 mps 703 mmHg 77%
    04:00 +14°C° 0 mm 3 mps 703 mmHg 76%
    05:00 +13°C° 0 mm 3 mps 703 mmHg 75%
    06:00 +14°C° 0 mm 3 mps 703 mmHg 71%
    07:00 +16°C° 0 mm 3 mps 703 mmHg 68%
    08:00 +17°C° 0 mm 3 mps 704 mmHg 64%
    09:00 +19°C° 0 mm 3 mps 704 mmHg 57%
    10:00 +21°C° 0 mm 3 mps 704 mmHg 51%
    11:00 +24°C° 0 mm 3 mps 705 mmHg 44%
    12:00 +23°C° 0 mm 4 mps 704 mmHg 45%
    13:00 +23°C° 0 mm 4 mps 703 mmHg 45%
    14:00 +23°C° 0 mm 4 mps 703 mmHg 46%
    15:00 +23°C° 0 mm 4 mps 702 mmHg 46%
    16:00 +23°C° 0 mm 4 mps 702 mmHg 47%
    17:00 +23°C° 0 mm 4 mps 702 mmHg 48%
    18:00 +21°C° 0 mm 3 mps 702 mmHg 54%
    19:00 +19°C° 0 mm 2 mps 702 mmHg 60%
    20:00 +18°C° 0 mm 2 mps 702 mmHg 65%
    21:00 +17°C° 0 mm 2 mps 702 mmHg 66%
    22:00 +17°C° 0 mm 3 mps 702 mmHg 67%
    23:00 +17°C° 0 mm 3 mps 703 mmHg 67%

    28 March, Thursday

    Time Temperature Precipitation Wind Pressure Humidity
    00:00 +17°C° 0 mm 4 mps 702 mmHg 67%
    01:00 +15°C° 0 mm 4 mps 702 mmHg 67%
    02:00 +15°C° 0 mm 5 mps 702 mmHg 67%
    03:00 +15°C° 0 mm 5 mps 702 mmHg 67%
    04:00 +15°C° 0 mm 5 mps 701 mmHg 68%
    05:00 +15°C° 0 mm 5 mps 701 mmHg 69%
    06:00 +16°C° 0 mm 5 mps 702 mmHg 65%
    07:00 +17°C° 0 mm 6 mps 702 mmHg 61%
    08:00 +18°C° 0 mm 7 mps 702 mmHg 58%
    09:00 +21°C° 0 mm 7 mps 703 mmHg 52%
    10:00 +23°C° 0 mm 7 mps 703 mmHg 46%
    11:00 +26°C° 0 mm 7 mps 703 mmHg 41%
    12:00 +27°C° 0 mm 6 mps 703 mmHg 39%
    13:00 +27°C° 0 mm 6 mps 702 mmHg 37%
    14:00 +28°C° 0 mm 5 mps 702 mmHg 35%
    15:00 +28°C° 0 mm 4 mps 702 mmHg 35%
    16:00 +28°C° 0 mm 3 mps 701 mmHg 36%
    17:00 +28°C° 0 mm 2 mps 701 mmHg 36%
    18:00 +25°C° 0 mm 2 mps 701 mmHg 43%
    19:00 +23°C° 0 mm 2 mps 701 mmHg 51%
    20:00 +19°C° 0 mm 2 mps 701 mmHg 58%
    21:00 +19°C° 0 mm 3 mps 701 mmHg 58%
    22:00 +19°C° 0 mm 3 mps 701 mmHg 58%
    23:00 +19°C° 0 mm 4 mps 701 mmHg 58%

    29 March, Friday

    Time Temperature Precipitation Wind Pressure Humidity
    00:00 +19°C° 0 mm 5 mps 701 mmHg 59%
    01:00 +19°C° 0 mm 6 mps 701 mmHg 59%
    02:00 +18°C° 0 mm 7 mps 701 mmHg 59%
    03:00 +18°C° 0 mm 7 mps 700 mmHg 59%
    04:00 +19°C° 0 mm 6 mps 700 mmHg 59%
    05:00 +19°C° 0 mm 6 mps 700 mmHg 59%
    06:00 +20°C° 0 mm 6 mps 700 mmHg 56%
    07:00 +20°C° 0 mm 7 mps 701 mmHg 53%
    08:00 +21°C° 0 mm 7 mps 701 mmHg 51%
    09:00 +23°C° 0 mm 7 mps 701 mmHg 46%
    10:00 +26°C° 0 mm 6 mps 701 mmHg 41%
    11:00 +28°C° 0 mm 6 mps 701 mmHg 36%
    12:00 +29°C° 0 mm 6 mps 700 mmHg 34%
    13:00 +30°C° 0 mm 6 mps 699 mmHg 32%
    14:00 +32°C° 0 mm 5 mps 698 mmHg 30%
    15:00 +30°C° 0 mm 5 mps 698 mmHg 30%
    16:00 +30°C° 0 mm 5 mps 697 mmHg 31%
    17:00 +30°C° 0 mm 5 mps 697 mmHg 31%
    18:00 +28°C° 0 mm 4 mps 697 mmHg 38%
    19:00 +25°C° 0 mm 4 mps 696 mmHg 45%
    20:00 +22°C° 0 mm 4 mps 696 mmHg 52%
    21:00 +22°C° 0 mm 4 mps 696 mmHg 54%
    22:00 +22°C° 0 mm 5 mps 697 mmHg 55%
    23:00 +22°C° 0 mm 6 mps 697 mmHg 56%
    Show more